Flight Information

DEPARTURE
SANTA BARBARA, CA
Elevation:
13
Runways:
7/25 - 6052x150 - ASPH-G
15R/33L - 4184x100 - ASPH-G
15L/33R - 4180x75 - ASPH-G
ATIS:
132.65
Clearance Delivery:
132.9
Ground:
121.7
Tower:
119.7
DESTINATION
,
Elevation:
TPA:
1000 (est.)


6853.7 NM72° True-14° Var58° HDG

Flight Plan:
(click to file on line)

1. Type
2. Aircraft Identification
3. Aircraft Type / Special Equipment
4. True Airspeed
kts
5. Departure Airport
(ICAO code)
6. Arriving Airport
(ICAO code)
7. Cruising Altitude
ft
8. Alternate Airport
(ICAO code)
9. Route of Flight
10. Remarks


00:00:00 Departure ATIS: Destination ATIS:

Clearance Limit:
Route:
Altitude: Expect in minutes
Frequency:
Transponder: (7500 Hijack / 7600 Lost Comms / 7700 Emergency)


KSBA 282053Z AUTO 16006KT 10SM CLR 21/M03 A3021 RMK AO2 SLP228 T02111033 58019 $
Time: 2022-01-28T20:53:00Z
1643405375
Winds: 160 @ 6 kts
Visibility: 10.0 sm
Clouds (AGL): CLR
Temperature: 21.1 C
Dew Point: -3.3 C
Pressure: 30.209646 in Hgbr


Notes:

Data extracted from FAA Digital Chart Supplement. Effective: 0901Z Thursday, DEC 2, 2021 to 0901Z Thursday, JAN 27, 2022
Current ATIS data is provided courtisy of PilotEdge.